Stündliche Wetter Abay

Heute, 2 März, Dienstag

Zeit Temperatur Niederschläge Wind Luftdruck Luftfeuchtigkeit
00:00 +3°C° 0 mm 2 m/S 693 mmHg 43%
01:00 +3°C° 0 mm 2 m/S 693 mmHg 42%
02:00 +3°C° 0 mm 2 m/S 693 mmHg 41%
03:00 +3°C° 0 mm 2 m/S 693 mmHg 41%
04:00 +3°C° 0 mm 2 m/S 693 mmHg 41%
05:00 +3°C° 0 mm 2 m/S 693 mmHg 43%
06:00 +4°C° 0 mm 2 m/S 693 mmHg 44%
07:00 +4°C° 0 mm 3 m/S 693 mmHg 46%
08:00 +5°C° 0 mm 3 m/S 693 mmHg 47%
09:00 +7°C° 0 mm 2 m/S 693 mmHg 51%
10:00 +9°C° 0 mm 1 m/S 693 mmHg 56%
11:00 +9°C° 0 mm 0 m/S 692 mmHg 61%
12:00 +9°C° 0 mm 0 m/S 692 mmHg 59%
13:00 +10°C° 0 mm 1 m/S 692 mmHg 57%
14:00 +10°C° 0 mm 1 m/S 692 mmHg 56%
15:00 +9°C° 0 mm 1 m/S 692 mmHg 62%
16:00 +8°C° 0 mm 1 m/S 692 mmHg 67%
17:00 +6°C° 0 mm 1 m/S 692 mmHg 72%
18:00 +5°C° 0 mm 2 m/S 693 mmHg 70%
19:00 +5°C° 0 mm 2 m/S 693 mmHg 67%
20:00 +4°C° 0 mm 2 m/S 694 mmHg 65%
21:00 +4°C° 0.1 mm 2 m/S 694 mmHg 69%
22:00 +5°C° 0.1 mm 1 m/S 694 mmHg 74%
23:00 +4°C° 0.1 mm 1 m/S 695 mmHg 78%

Morgen, 3 März, Mittwoch

Zeit Temperatur Niederschläge Wind Luftdruck Luftfeuchtigkeit
00:00 +4°C° 0 mm 1 m/S 695 mmHg 82%
01:00 +4°C° 0 mm 1 m/S 694 mmHg 86%
02:00 +3°C° 0 mm 1 m/S 694 mmHg 89%
03:00 +3°C° 0.1 mm 1 m/S 694 mmHg 91%
04:00 +3°C° 0.1 mm 1 m/S 694 mmHg 93%
05:00 +3°C° 0.1 mm 1 m/S 694 mmHg 95%
06:00 +3°C° 0.4 mm 1 m/S 694 mmHg 96%
07:00 +3°C° 0.4 mm 1 m/S 694 mmHg 96%
08:00 +3°C° 0.4 mm 1 m/S 694 mmHg 97%
09:00 +3°C° 0.9 mm 1 m/S 694 mmHg 97%
10:00 +2°C° 0.9 mm 2 m/S 694 mmHg 97%
11:00 +2°C° 0.9 mm 2 m/S 693 mmHg 97%
12:00 +2°C° 0.3 mm 2 m/S 693 mmHg 97%
13:00 +2°C° 0.3 mm 2 m/S 693 mmHg 97%
14:00 +2°C° 0.3 mm 2 m/S 693 mmHg 97%
15:00 +2°C° 0.2 mm 2 m/S 693 mmHg 97%
16:00 +2°C° 0.2 mm 2 m/S 693 mmHg 96%
17:00 +3°C° 0.2 mm 1 m/S 693 mmHg 95%
18:00 +2°C° 0 mm 1 m/S 694 mmHg 94%
19:00 +2°C° 0 mm 1 m/S 694 mmHg 93%
20:00 +2°C° 0 mm 1 m/S 695 mmHg 91%
21:00 +1°C° 0 mm 1 m/S 694 mmHg 89%
22:00 +1°C° 0 mm 1 m/S 694 mmHg 87%
23:00 +1°C° 0 mm 1 m/S 694 mmHg 84%

übermorgen, 4 März, Donnerstag

Zeit Temperatur Niederschläge Wind Luftdruck Luftfeuchtigkeit
00:00 +1°C° 0 mm 1 m/S 694 mmHg 84%
01:00 +1°C° 0 mm 1 m/S 694 mmHg 83%
02:00 +1°C° 0 mm 1 m/S 694 mmHg 83%
03:00 +2°C° 0.1 mm 1 m/S 694 mmHg 82%
04:00 +2°C° 0.1 mm 1 m/S 694 mmHg 82%
05:00 +2°C° 0.1 mm 1 m/S 694 mmHg 81%
06:00 +2°C° 0 mm 1 m/S 694 mmHg 81%
07:00 +3°C° 0 mm 1 m/S 694 mmHg 80%
08:00 +2°C° 0 mm 2 m/S 694 mmHg 80%
09:00 +4°C° 0 mm 1 m/S 694 mmHg 79%
10:00 +5°C° 0 mm 1 m/S 693 mmHg 78%
11:00 +6°C° 0 mm 1 m/S 693 mmHg 78%
12:00 +7°C° 0 mm 1 m/S 692 mmHg 77%
13:00 +7°C° 0 mm 1 m/S 692 mmHg 75%
14:00 +7°C° 0 mm 1 m/S 691 mmHg 74%
15:00 +7°C° 0 mm 1 m/S 691 mmHg 76%
16:00 +7°C° 0 mm 1 m/S 691 mmHg 78%
17:00 +6°C° 0 mm 1 m/S 692 mmHg 79%
18:00 +5°C° 0 mm 2 m/S 691 mmHg 75%
19:00 +4°C° 0 mm 3 m/S 691 mmHg 70%
20:00 +3°C° 0 mm 3 m/S 691 mmHg 65%
21:00 +3°C° 0 mm 4 m/S 691 mmHg 64%
22:00 +3°C° 0 mm 4 m/S 691 mmHg 63%
23:00 +3°C° 0 mm 4 m/S 691 mmHg 61%

5 März, Freitag

Zeit Temperatur Niederschläge Wind Luftdruck Luftfeuchtigkeit
00:00 +3°C° 0 mm 4 m/S 692 mmHg 66%
01:00 +1°C° 0 mm 5 m/S 692 mmHg 71%
02:00 +1°C° 0 mm 5 m/S 693 mmHg 76%
03:00 +1°C° 0.6 mm 4 m/S 694 mmHg 83%
04:00 +2°C° 0.6 mm 3 m/S 695 mmHg 90%
05:00 +2°C° 0.6 mm 3 m/S 696 mmHg 96%
06:00 +1°C° 1.8 mm 3 m/S 697 mmHg 96%
07:00 +1°C° 1.8 mm 3 m/S 697 mmHg 96%
08:00 0°C° 1.8 mm 3 m/S 698 mmHg 95%
09:00 0°C° 0.6 mm 3 m/S 698 mmHg 93%
10:00 +2°C° 0.6 mm 2 m/S 698 mmHg 91%
11:00 +3°C° 0.6 mm 1 m/S 699 mmHg 89%
12:00 +3°C° 0 mm 2 m/S 698 mmHg 89%
13:00 +3°C° 0 mm 2 m/S 698 mmHg 88%
14:00 +3°C° 0 mm 2 m/S 698 mmHg 88%
15:00 +3°C° 0 mm 2 m/S 698 mmHg 89%
16:00 +3°C° 0 mm 2 m/S 698 mmHg 90%
17:00 +2°C° 0 mm 2 m/S 698 mmHg 91%
18:00 +2°C° 0 mm 2 m/S 698 mmHg 90%
19:00 +1°C° 0 mm 2 m/S 698 mmHg 88%
20:00 -1°C° 0 mm 2 m/S 698 mmHg 86%
21:00 -1°C° 0 mm 2 m/S 698 mmHg 82%
22:00 -1°C° 0 mm 2 m/S 698 mmHg 79%
23:00 -1°C° 0 mm 2 m/S 697 mmHg 76%

6 März, Samstag

Zeit Temperatur Niederschläge Wind Luftdruck Luftfeuchtigkeit
00:00 -1°C° 0 mm 2 m/S 697 mmHg 74%
01:00 -1°C° 0 mm 3 m/S 697 mmHg 72%
02:00 0°C° 0 mm 3 m/S 697 mmHg 70%
03:00 0°C° 0 mm 3 m/S 696 mmHg 68%
04:00 0°C° 0 mm 3 m/S 696 mmHg 67%
05:00 0°C° 0 mm 3 m/S 695 mmHg 65%
06:00 0°C° 0 mm 3 m/S 695 mmHg 64%
07:00 +1°C° 0 mm 3 m/S 695 mmHg 64%
08:00 +2°C° 0 mm 3 m/S 694 mmHg 63%
09:00 +4°C° 0 mm 2 m/S 693 mmHg 64%
10:00 +5°C° 0 mm 2 m/S 692 mmHg 66%
11:00 +6°C° 0 mm 2 m/S 691 mmHg 67%
12:00 +7°C° 0 mm 2 m/S 690 mmHg 66%
13:00 +7°C° 0 mm 2 m/S 689 mmHg 66%
14:00 +8°C° 0 mm 2 m/S 688 mmHg 65%
15:00 +8°C° 0 mm 2 m/S 688 mmHg 64%
16:00 +7°C° 0 mm 2 m/S 688 mmHg 63%
17:00 +6°C° 0 mm 2 m/S 687 mmHg 62%
18:00 +6°C° 0 mm 2 m/S 688 mmHg 60%
19:00 +5°C° 0 mm 2 m/S 688 mmHg 58%
20:00 +5°C° 0 mm 2 m/S 689 mmHg 56%
21:00 +4°C° 0 mm 2 m/S 689 mmHg 56%
22:00 +5°C° 0 mm 1 m/S 689 mmHg 56%
23:00 +5°C° 0 mm 1 m/S 689 mmHg 56%

7 März, Sonntag

Zeit Temperatur Niederschläge Wind Luftdruck Luftfeuchtigkeit
00:00 +5°C° 0 mm 1 m/S 689 mmHg 56%
01:00 +5°C° 0 mm 1 m/S 688 mmHg 56%
02:00 +4°C° 0 mm 1 m/S 688 mmHg 56%
03:00 +4°C° 0 mm 1 m/S 688 mmHg 57%
04:00 +4°C° 0 mm 1 m/S 688 mmHg 58%
05:00 +4°C° 0 mm 1 m/S 689 mmHg 59%
06:00 +5°C° 0 mm 1 m/S 689 mmHg 59%
07:00 +5°C° 0 mm 1 m/S 689 mmHg 59%
08:00 +6°C° 0 mm 1 m/S 690 mmHg 60%
09:00 +7°C° 0 mm 1 m/S 690 mmHg 60%
10:00 +7°C° 0 mm 1 m/S 689 mmHg 60%
11:00 +8°C° 0 mm 1 m/S 689 mmHg 60%
12:00 +9°C° 0 mm 1 m/S 689 mmHg 61%
13:00 +9°C° 0 mm 1 m/S 689 mmHg 62%
14:00 +9°C° 0 mm 1 m/S 689 mmHg 63%
15:00 +9°C° 0 mm 1 m/S 689 mmHg 66%
16:00 +8°C° 0 mm 1 m/S 690 mmHg 69%
17:00 +8°C° 0 mm 1 m/S 690 mmHg 72%
18:00 +7°C° 0 mm 1 m/S 690 mmHg 73%
19:00 +6°C° 0 mm 1 m/S 691 mmHg 74%
20:00 +6°C° 0 mm 1 m/S 691 mmHg 75%
21:00 +5°C° 0 mm 1 m/S 691 mmHg 74%
22:00 +5°C° 0 mm 1 m/S 691 mmHg 74%
23:00 +5°C° 0 mm 1 m/S 691 mmHg 73%
Mehr zeigen

Wir brauchen deine Erlaubnis

Meteoprog und unser Service Anbieter werden persönliche Daten aufbewahren, so wie Cookies, Geräte Bezeichnung oder ähnliche Technologien von deinem Gerät und Prozess, so wie Persönliche Daten Inhalte und Werbungen, genauso wie social Media und den Verkehr zu analysieren.

  • Aufbewahrung und/oder Zugang zu deiner Geräte Informationen.

    Cookies, Geräte Bezeichnung oder andere Informationen, können aufbewahrt oder Zugang zu deinem Gerät erhalten, für den Grund, der oben angegeben wird.

  • Personalisierte Werbung und Inhalte, Messungen, Einblick in das Publikum und Produkt Entwicklung.

    Werbungen und Inhalte können personalisiert werden, basierend auf ein Profil. Mehr Daten können besser personalisierte Werbungen und Inhalte hinzufügen. Werbung und Inhalte können gezeigt und gemessen werden. Einblicke über das Publikum, welche die Werbung gesehen haben und den Inhalt, können abgeleitet werden. So wie Daten können genutzt werden, um es zu verbessern oder die Benutzer Erfahrung zu verbessern das System und die Software.

Wenn du “Ich stimme zu” klickst, erlaubst du uns, die Cookies zu benutzen die Geräte Bezeichnung, den Web oder ähnliche Technologien zu benutzen. Deine Settings, können in deinem Gerät bei deinem Browser geändert werden.

Für den bestimmten Zweck, berechtigten Interessen beruhen darauf, mehr als auf den Inhalt. Du kannst mehr darüber in unseren Privaten und Cookie Politik lesen.